Meteo pe oră la

Astăzi, 26 Iulie, Luni

Timp Temperatura Precipitaţii Vânt Presiune Umiditate
00:00 +14°C° 0 mm 0 m/s 710 mmHg 49%
01:00 +14°C° 0 mm 0 m/s 710 mmHg 52%
02:00 +13°C° 0 mm 0 m/s 709 mmHg 55%
03:00 +13°C° 0 mm 0 m/s 709 mmHg 57%
04:00 +12°C° 0 mm 0 m/s 709 mmHg 61%
05:00 +12°C° 0 mm 0 m/s 709 mmHg 65%
06:00 +11°C° 0 mm 0 m/s 709 mmHg 69%
07:00 +15°C° 0 mm 1 m/s 710 mmHg 64%
08:00 +18°C° 0 mm 1 m/s 711 mmHg 59%
09:00 +19°C° 0 mm 2 m/s 712 mmHg 54%
10:00 +21°C° 0 mm 2 m/s 711 mmHg 46%
11:00 +25°C° 0 mm 2 m/s 711 mmHg 38%
12:00 +27°C° 0 mm 2 m/s 711 mmHg 31%
13:00 +28°C° 0 mm 2 m/s 710 mmHg 28%
14:00 +28°C° 0 mm 2 m/s 709 mmHg 25%
15:00 +29°C° 0 mm 2 m/s 708 mmHg 22%
16:00 +27°C° 0 mm 1 m/s 708 mmHg 25%
17:00 +25°C° 0 mm 1 m/s 708 mmHg 29%
18:00 +22°C° 0 mm 1 m/s 708 mmHg 32%
19:00 +21°C° 0 mm 1 m/s 708 mmHg 34%
20:00 +19°C° 0 mm 0 m/s 708 mmHg 36%
21:00 +18°C° 0 mm 0 m/s 708 mmHg 38%
22:00 +17°C° 0 mm 0 m/s 708 mmHg 39%
23:00 +18°C° 0 mm 1 m/s 709 mmHg 41%

Mâine, 27 Iulie, Marţi

Timp Temperatura Precipitaţii Vânt Presiune Umiditate
00:00 +18°C° 0 mm 1 m/s 709 mmHg 43%
01:00 +16°C° 0 mm 1 m/s 708 mmHg 46%
02:00 +14°C° 0 mm 0 m/s 708 mmHg 50%
03:00 +14°C° 0 mm 0 m/s 708 mmHg 54%
04:00 +13°C° 0 mm 0 m/s 708 mmHg 55%
05:00 +13°C° 0 mm 0 m/s 708 mmHg 56%
06:00 +13°C° 0 mm 0 m/s 708 mmHg 57%
07:00 +16°C° 0 mm 1 m/s 708 mmHg 51%
08:00 +20°C° 0 mm 1 m/s 709 mmHg 45%
09:00 +23°C° 0 mm 2 m/s 709 mmHg 39%
10:00 +25°C° 0 mm 2 m/s 709 mmHg 34%
11:00 +27°C° 0 mm 3 m/s 709 mmHg 29%
12:00 +30°C° 0 mm 3 m/s 709 mmHg 25%
13:00 +30°C° 0 mm 3 m/s 708 mmHg 22%
14:00 +31°C° 0 mm 3 m/s 707 mmHg 20%
15:00 +32°C° 0 mm 2 m/s 706 mmHg 18%
16:00 +30°C° 0 mm 2 m/s 706 mmHg 22%
17:00 +27°C° 0 mm 2 m/s 706 mmHg 25%
18:00 +25°C° 0 mm 2 m/s 705 mmHg 28%
19:00 +24°C° 0 mm 1 m/s 706 mmHg 31%
20:00 +22°C° 0 mm 1 m/s 706 mmHg 34%
21:00 +21°C° 0 mm 1 m/s 706 mmHg 36%
22:00 +21°C° 0 mm 1 m/s 706 mmHg 38%
23:00 +20°C° 0 mm 1 m/s 706 mmHg 39%

Poimâine, 28 Iulie, Miercuri

Timp Temperatura Precipitaţii Vânt Presiune Umiditate
00:00 +20°C° 0 mm 1 m/s 706 mmHg 40%
01:00 +19°C° 0 mm 1 m/s 705 mmHg 42%
02:00 +19°C° 0 mm 1 m/s 705 mmHg 43%
03:00 +19°C° 0 mm 1 m/s 705 mmHg 44%
04:00 +18°C° 0 mm 1 m/s 705 mmHg 46%
05:00 +18°C° 0 mm 1 m/s 705 mmHg 47%
06:00 +18°C° 0 mm 1 m/s 705 mmHg 48%
07:00 +20°C° 0 mm 1 m/s 705 mmHg 42%
08:00 +23°C° 0 mm 2 m/s 706 mmHg 36%
09:00 +26°C° 0 mm 2 m/s 707 mmHg 30%
10:00 +29°C° 0 mm 3 m/s 707 mmHg 26%
11:00 +32°C° 0 mm 4 m/s 706 mmHg 22%
12:00 +35°C° 0 mm 5 m/s 706 mmHg 18%
13:00 +35°C° 0 mm 6 m/s 705 mmHg 17%
14:00 +36°C° 0 mm 6 m/s 705 mmHg 17%
15:00 +36°C° 0 mm 6 m/s 704 mmHg 16%
16:00 +34°C° 0 mm 6 m/s 704 mmHg 21%
17:00 +32°C° 0 mm 5 m/s 704 mmHg 25%
18:00 +29°C° 0 mm 5 m/s 705 mmHg 30%
19:00 +27°C° 0 mm 5 m/s 706 mmHg 38%
20:00 +25°C° 0 mm 5 m/s 706 mmHg 46%
21:00 +22°C° 0 mm 6 m/s 707 mmHg 54%
22:00 +21°C° 0 mm 5 m/s 708 mmHg 57%
23:00 +20°C° 0 mm 5 m/s 708 mmHg 59%

29 Iulie, Joi

Timp Temperatura Precipitaţii Vânt Presiune Umiditate
00:00 +19°C° 0 mm 5 m/s 708 mmHg 62%
01:00 +18°C° 0 mm 4 m/s 708 mmHg 62%
02:00 +17°C° 0 mm 4 m/s 708 mmHg 61%
03:00 +16°C° 0 mm 3 m/s 708 mmHg 61%
04:00 +14°C° 0 mm 3 m/s 708 mmHg 62%
05:00 +14°C° 0 mm 3 m/s 708 mmHg 63%
06:00 +13°C° 0 mm 3 m/s 708 mmHg 64%
07:00 +14°C° 0 mm 3 m/s 709 mmHg 55%
08:00 +17°C° 0 mm 3 m/s 709 mmHg 46%
09:00 +18°C° 0 mm 3 m/s 710 mmHg 37%
10:00 +20°C° 0 mm 3 m/s 710 mmHg 31%
11:00 +22°C° 0 mm 3 m/s 710 mmHg 24%
12:00 +25°C° 0 mm 2 m/s 709 mmHg 18%
13:00 +26°C° 0 mm 2 m/s 709 mmHg 16%
14:00 +27°C° 0 mm 2 m/s 708 mmHg 15%
15:00 +28°C° 0 mm 2 m/s 708 mmHg 13%
16:00 +25°C° 0 mm 2 m/s 708 mmHg 15%
17:00 +23°C° 0 mm 2 m/s 708 mmHg 17%
18:00 +20°C° 0 mm 2 m/s 707 mmHg 19%
19:00 +19°C° 0 mm 2 m/s 708 mmHg 19%
20:00 +17°C° 0 mm 2 m/s 708 mmHg 20%
21:00 +16°C° 0 mm 2 m/s 709 mmHg 20%
22:00 +15°C° 0 mm 2 m/s 709 mmHg 20%
23:00 +14°C° 0 mm 2 m/s 709 mmHg 21%

30 Iulie, Vineri

Timp Temperatura Precipitaţii Vânt Presiune Umiditate
00:00 +13°C° 0 mm 2 m/s 709 mmHg 22%
01:00 +13°C° 0 mm 2 m/s 709 mmHg 23%
02:00 +11°C° 0 mm 3 m/s 709 mmHg 25%
03:00 +11°C° 0 mm 3 m/s 709 mmHg 26%
04:00 +10°C° 0 mm 3 m/s 710 mmHg 29%
05:00 +10°C° 0 mm 2 m/s 710 mmHg 32%
06:00 +9°C° 0 mm 2 m/s 710 mmHg 35%
07:00 +12°C° 0 mm 2 m/s 711 mmHg 37%
08:00 +13°C° 0 mm 3 m/s 712 mmHg 39%
09:00 +16°C° 0 mm 3 m/s 712 mmHg 41%
10:00 +19°C° 0 mm 3 m/s 712 mmHg 40%
11:00 +21°C° 0 mm 2 m/s 712 mmHg 39%
12:00 +25°C° 0 mm 2 m/s 712 mmHg 38%
13:00 +26°C° 0 mm 2 m/s 711 mmHg 36%
14:00 +27°C° 0 mm 2 m/s 711 mmHg 33%
15:00 +28°C° 0 mm 1 m/s 710 mmHg 31%
16:00 +26°C° 0 mm 2 m/s 710 mmHg 35%
17:00 +24°C° 0 mm 2 m/s 710 mmHg 39%
18:00 +23°C° 0 mm 2 m/s 710 mmHg 44%
19:00 +20°C° 0 mm 2 m/s 710 mmHg 48%
20:00 +19°C° 0 mm 3 m/s 711 mmHg 53%
21:00 +18°C° 0 mm 3 m/s 711 mmHg 57%
22:00 +17°C° 0 mm 3 m/s 711 mmHg 61%
23:00 +16°C° 0 mm 2 m/s 711 mmHg 64%

31 Iulie, Sâmbătă

Timp Temperatura Precipitaţii Vânt Presiune Umiditate
00:00 +15°C° 0 mm 2 m/s 711 mmHg 68%
01:00 +14°C° 0 mm 2 m/s 711 mmHg 70%
02:00 +14°C° 0 mm 2 m/s 711 mmHg 73%
03:00 +13°C° 0 mm 2 m/s 711 mmHg 76%
04:00 +13°C° 0 mm 1 m/s 711 mmHg 77%
05:00 +12°C° 0 mm 1 m/s 712 mmHg 79%
06:00 +12°C° 0 mm 1 m/s 712 mmHg 80%
07:00 +14°C° 0 mm 1 m/s 713 mmHg 73%
08:00 +16°C° 0 mm 2 m/s 713 mmHg 66%
09:00 +18°C° 0 mm 2 m/s 714 mmHg 59%
10:00 +20°C° 0 mm 3 m/s 714 mmHg 52%
11:00 +22°C° 0 mm 3 m/s 714 mmHg 46%
12:00 +25°C° 0 mm 3 m/s 714 mmHg 39%
13:00 +26°C° 0 mm 3 m/s 713 mmHg 37%
14:00 +27°C° 0 mm 3 m/s 712 mmHg 35%
15:00 +28°C° 0 mm 2 m/s 711 mmHg 33%
16:00 +26°C° 0 mm 2 m/s 711 mmHg 37%
17:00 +24°C° 0 mm 2 m/s 711 mmHg 41%
18:00 +21°C° 0 mm 2 m/s 711 mmHg 45%
19:00 +20°C° 0 mm 2 m/s 711 mmHg 48%
20:00 +20°C° 0 mm 2 m/s 712 mmHg 50%
21:00 +19°C° 0 mm 2 m/s 712 mmHg 53%
22:00 +18°C° 0 mm 2 m/s 712 mmHg 56%
23:00 +17°C° 0 mm 2 m/s 712 mmHg 59%
Arată mai mult

Formular de consimțământ

Meteoprog și furnizorii noștri de servicii pot stoca și accesa date personale, precum cookies, identificatori de dispozitiv sau alte tehnologii similare pe dispozitivul dumneavoastră și procesa astfel de date pentru a personaliza conținutul și reclamele, dar și pentru a oferi caracteristici de social media și pentru a analiza traficul.

  • Stocarea și/sau accesarea informațiilor pe dispozitivul dumneavoastră

    Cookies, identificatori de dispozitiv sau alte informații pot fi stocate sau accesate pe dispozitiv în scopurile indicate mai sus.

  • Reclame și conținut personalizat, evaluarea reclamelor și a conținutului, informații despre audiențe și dezvoltarea produselor

    Reclamele și conținutul pot fi personalizate pe baza unui profil. Pot fi adăugate date suplimentare pentru a personaliza mai bine reclamele și conținutul. Performanța reclamelor și conținutului poate fi măsurată. Pot fi obținute informații despre utilizatorii care au văzut reclamele și conținutul. Aceste date pot fi utilizate pentru a dezvolta sau îmbunătăți experiența utilizatorilor, sistemele și software-ul.

Dând clic pe ‘Sunt de acord’, permiteți utilizarea cookie-urilor menționate, a identificatorilor de dispozitiv, balizelor web sau altor tehnologii similare. Setările pot fi modificate din browser-ul dispozitivului dumneavoastră.

În anumite scopuri, interesele legitime pot prima asupra consimțământului. Puteți citi mai multe informații în acest sens în Politica privind Confidențialitatea Datelor și Cookie.